Date,TemperatureHighF,TemperatureAvgF,TemperatureLowF,DewpointHighF,DewpointAvgF,DewpointLowF,HumidityHigh,HumidityAvg,HumidityLow,PressureMaxIn,PressureMinIn,WindSpeedMaxMPH,WindSpeedAvgMPH,GustSpeedMaxMPH,PrecipitationSumIn
2013-1-1,44.9,40.3,33.2,43.6,37.3,28.0,96,89,69,30.18,29.99,5,0,5,0.38
2013-1-2,44.5,40.8,38.1,42.9,37.0,34.4,97,86,77,30.17,29.94,12,1,12,0.02
2013-1-3,41.1,36.0,30.7,38.2,32.2,24.1,96,86,71,30.32,30.13,11,1,11,0.00
2013-1-4,43.2,33.6,28.6,24.6,19.5,13.9,77,58,31,30.40,30.30,15,3,15,0.00
2013-1-5,51.9,35.6,21.5,32.7,23.0,15.2,92,62,25,30.47,30.25,13,0,13,0.00
2013-1-6,49.9,41.7,37.0,38.2,33.2,27.7,85,72,59,30.25,30.07,15,2,15,0.00
2013-1-7,50.1,36.8,28.5,29.6,26.7,24.4,86,69,40,30.46,30.24,14,1,14,0.00
2013-1-8,56.8,37.0,23.6,43.8,30.8,21.6,92,80,55,30.51,30.39,6,0,6,0.00
2013-1-9,53.9,47.1,40.4,49.7,44.2,36.7,96,90,84,30.50,30.40,4,0,4,0.00
2013-1-10,61.7,51.0,41.5,54.3,47.0,40.3,97,87,70,30.53,30.35,11,0,11,0.00
2013-1-11,56.8,49.3,44.4,55.5,47.9,42.9,100,95,80,30.36,30.14,9,0,9,0.16
2013-1-12,70.3,60.2,53.9,61.9,57.2,53.1,98,90,69,30.17,30.07,7,0,7,0.01
2013-1-13,68.8,62.7,58.9,58.0,56.1,54.5,87,79,67,30.08,29.98,16,1,16,0.00
2013-1-14,61.4,56.7,45.5,59.3,55.0,44.1,97,94,87,30.13,29.99,11,1,11,0.92
2013-1-15,51.3,46.1,41.8,50.5,44.9,40.6,100,96,95,30.15,30.03,8,0,8,1.01
2013-1-16,58.4,49.7,42.0,55.6,48.2,40.9,100,95,83,30.06,29.95,6,0,6,0.36
2013-1-17,51.5,43.6,33.6,50.4,42.1,28.4,100,94,81,30.22,29.79,11,1,11,1.34
2013-1-18,47.1,33.9,27.5,31.2,27.1,23.4,93,77,48,30.55,30.21,14,1,14,0.00
2013-1-19,55.1,35.8,22.9,32.0,26.0,16.5,95,74,25,30.53,30.23,5,0,6,0.01
2013-1-20,55.2,41.3,27.1,35.4,28.9,24.5,93,64,35,30.23,30.10,17,2,17,0.00
2013-1-21,49.9,35.4,24.4,31.8,22.9,11.5,99,64,34,30.15,30.02,19,2,19,0.00
2013-1-22,30.9,25.7,19.9,12.8,3.5,-6.0,55,39,21,30.30,30.06,23,4,23,0.00
2013-1-23,43.1,32.1,24.8,27.8,17.9,4.4,80,56,41,30.39,30.09,15,2,15,0.00
2013-1-24,42.8,34.2,22.2,31.9,16.5,5.5,66,49,31,30.46,30.01,28,4,28,0.00
2013-1-25,43.6,27.5,19.6,38.8,20.0,5.5,92,74,48,30.50,30.13,20,1,20,0.09
2013-1-26,46.2,36.1,25.7,35.0,24.8,17.6,82,66,38,30.38,30.14,16,2,16,0.00
2013-1-27,39.9,32.0,23.4,31.2,26.3,20.3,92,80,67,30.56,30.38,10,1,10,0.03
2013-1-28,64.8,45.0,30.3,50.6,39.8,28.6,95,83,56,30.49,30.26,10,0,10,0.00
2013-1-29,69.0,52.5,36.2,57.3,46.6,34.7,100,82,55,30.27,30.01,12,1,12,0.02
2013-1-30,63.7,57.6,44.2,58.8,54.4,39.1,96,89,82,30.01,29.42,21,2,21,3.12
2013-1-31,44.3,33.9,28.5,39.2,23.4,19.3,85,66,51,30.04,29.48,16,4,22,0.01
2013-2-1,39.7,27.0,20.5,29.5,13.1,3.5,84,56,40,30.40,29.93,25,3,25,0.00
2013-2-2,40.6,29.2,16.8,31.5,18.6,5.9,93,67,39,30.42,30.07,8,0,8,0.00
2013-2-3,42.1,34.5,29.0,31.9,25.9,18.7,95,71,52,30.09,29.92,22,4,22,0.02
2013-2-4,51.0,35.2,26.5,28.2,23.0,18.0,81,63,36,30.18,30.01,12,1,12,0.00
2013-2-5,54.7,40.5,28.4,39.3,30.9,24.5,87,70,45,30.04,29.95,11,1,11,0.00
2013-2-6,58.4,45.4,33.0,37.6,28.7,19.4,87,56,23,30.25,30.02,13,1,13,0.00
2013-2-7,42.4,39.6,33.1,39.0,31.3,23.0,94,74,48,30.28,30.03,7,0,7,0.77
2013-2-8,49.9,41.2,33.3,44.2,36.3,26.9,96,83,56,30.16,29.94,16,1,16,0.02
2013-2-9,56.5,38.1,28.7,30.0,25.9,19.5,87,65,26,30.38,30.11,14,1,14,0.00
2013-2-10,48.4,40.2,31.0,43.8,30.1,22.5,95,70,40,30.44,30.19,13,0,13,0.31
2013-2-11,57.6,52.0,44.8,52.0,42.0,16.6,95,73,27,30.20,29.98,17,2,17,0.05
2013-2-12,52.1,44.5,38.6,38.1,27.4,16.0,93,54,27,30.11,29.93,15,2,15,0.13
2013-2-13,48.7,39.8,35.2,43.5,36.3,29.3,95,87,72,29.96,29.65,15,1,16,0.29
2013-2-14,52.7,39.4,29.6,32.0,27.5,24.1,86,65,35,30.10,29.91,11,1,11,0.00
2013-2-15,54.6,38.4,24.9,37.4,29.7,23.2,95,74,38,30.15,29.98,10,1,10,0.00
2013-2-16,35.4,30.0,22.6,29.5,20.9,10.7,84,69,51,30.04,29.88,17,2,17,0.00
2013-2-17,33.4,25.7,19.3,13.0,10.2,6.2,68,52,37,30.33,30.04,23,3,23,0.00
2013-2-18,50.8,35.2,18.3,26.5,20.1,11.2,84,56,36,30.44,30.21,9,0,9,0.00
2013-2-19,53.2,41.4,33.6,40.9,27.3,13.7,92,59,33,30.23,29.88,20,3,20,0.06
2013-2-20,46.4,36.0,29.0,16.5,5.7,-7.9,50,30,13,30.17,30.04,21,2,21,0.00
2013-2-21,60.2,39.0,21.3,35.7,18.7,5.8,91,49,13,30.26,30.11,7,0,7,0.22
2013-2-22,41.8,36.5,33.5,39.0,33.9,30.5,95,90,79,30.29,30.12,7,0,7,0.41
2013-2-23,53.2,43.8,35.9,48.5,41.7,34.3,100,92,81,30.14,29.85,6,0,6,0.34
2013-2-24,55.4,45.3,30.1,40.0,29.8,19.5,81,58,28,30.05,29.86,14,1,14,0.00
2013-2-25,45.4,35.5,27.6,27.9,25.6,23.1,92,68,47,30.18,30.02,9,0,9,0.00
2013-2-26,37.2,33.1,29.7,35.4,31.2,26.2,95,92,84,30.09,29.63,10,1,10,0.76
2013-2-27,55.2,42.7,31.1,37.6,32.5,29.0,96,69,40,29.83,29.69,13,2,13,0.00
2013-2-28,38.5,33.5,30.7,32.2,25.9,23.6,80,73,67,29.94,29.71,15,3,21,0.00
2013-3-1,37.1,32.6,29.2,29.5,27.2,25.1,92,80,68,29.99,29.91,11,2,12,0.00
2013-3-2,39.4,32.4,26.6,29.0,25.7,19.1,91,77,58,29.99,29.89,13,2,13,0.00
2013-3-3,32.1,26.5,22.0,19.6,16.1,13.1,75,65,52,30.10,29.97,15,2,15,0.00
2013-3-4,52.6,35.4,22.1,25.3,15.1,0.3,74,48,13,30.20,30.08,12,1,12,0.00
2013-3-5,45.6,37.4,30.0,42.3,33.6,24.5,96,86,72,30.12,29.68,18,1,18,0.97
2013-3-6,34.2,28.9,25.2,27.7,23.3,19.4,88,80,74,30.22,29.70,27,4,27,0.00
2013-3-7,42.4,32.0,26.3,32.1,26.0,22.1,88,79,65,30.33,30.18,15,2,15,0.00
2013-3-8,54.5,36.1,22.4,27.9,24.2,11.7,91,66,18,30.38,30.28,9,1,13,0.00
2013-3-9,60.9,42.2,23.2,35.1,26.8,20.2,90,60,28,30.39,30.27,8,0,8,0.00
2013-3-10,62.7,49.5,35.1,36.9,33.8,30.0,83,57,35,30.31,30.17,10,0,10,0.00
2013-3-11,55.0,50.8,46.1,49.5,45.6,35.1,95,83,59,30.20,29.82,14,1,14,0.58
2013-3-12,52.4,45.7,39.4,49.4,38.0,25.8,96,76,39,30.04,29.75,15,2,15,0.40
2013-3-13,43.4,37.4,28.7,32.0,24.1,15.8,71,59,44,30.21,30.03,20,3,23,0.00
2013-3-14,44.1,33.3,24.1,19.3,15.7,12.0,68,50,30,30.34,30.20,14,2,14,0.00
2013-3-15,66.5,49.7,32.3,42.4,32.0,15.3,75,52,26,30.27,29.92,16,1,16,0.00
2013-3-16,74.8,63.4,54.7,48.2,44.7,41.7,63,51,36,29.93,29.70,19,2,19,0.00
2013-3-17,70.4,58.3,42.8,51.6,46.3,39.8,89,66,42,30.01,29.80,12,1,12,0.00
2013-3-18,42.9,38.1,34.5,40.8,36.5,32.9,96,94,89,30.07,29.87,9,1,9,0.36
2013-3-19,54.2,44.2,37.3,44.0,28.9,12.8,97,60,30,30.10,29.91,21,3,21,0.00
2013-3-20,51.7,40.4,31.6,29.6,15.2,9.2,88,37,22,30.13,29.84,15,2,15,0.00
2013-3-21,33.7,28.4,21.5,24.4,12.7,5.7,74,52,41,30.02,29.81,23,4,23,0.00
2013-3-22,45.9,35.4,24.2,24.0,14.7,7.3,63,44,23,30.10,30.01,13,2,13,0.00
2013-3-23,58.0,44.2,35.3,44.5,35.2,24.0,89,71,51,30.07,29.90,5,0,8,0.02
2013-3-24,44.0,39.7,35.5,40.0,37.5,33.8,95,92,83,29.93,29.54,12,1,12,0.77
2013-3-25,37.0,32.4,28.0,33.8,25.1,20.6,95,75,56,29.94,29.56,25,5,25,0.05
2013-3-26,35.2,30.8,26.9,28.3,23.8,20.5,86,75,67,30.26,29.92,19,4,21,0.00
2013-3-27,42.6,34.3,28.5,25.6,23.0,19.8,82,64,42,30.33,30.23,17,2,17,0.00
2013-3-28,50.1,38.2,29.7,26.1,22.4,19.4,77,55,30,30.35,30.26,16,2,16,0.00
2013-3-29,56.0,38.2,24.4,38.2,27.4,16.1,92,70,27,30.39,30.28,12,1,12,0.02
2013-3-30,60.4,48.3,39.5,44.3,40.5,37.0,96,77,49,30.28,30.07,9,0,9,0.24
2013-3-31,64.0,52.1,45.6,52.4,47.8,41.3,96,86,60,30.07,29.82,8,1,13,0.34
2013-4-1,60.4,50.8,37.5,49.6,40.2,31.2,95,69,46,29.99,29.85,21,3,21,0.00
2013-4-2,56.7,45.9,36.2,32.2,24.0,14.6,70,45,20,30.16,29.97,17,3,17,0.00
2013-4-3,58.9,47.6,33.4,28.0,22.7,14.9,68,39,18,30.27,30.15,9,1,10,0.00
2013-4-4,47.0,37.9,33.4,35.1,28.5,15.4,94,72,33,30.26,29.99,9,1,9,0.48
2013-4-5,60.0,46.2,36.1,44.3,37.9,31.8,94,75,37,30.11,29.96,14,2,14,0.00
2013-4-6,66.2,48.8,30.5,39.5,34.7,28.7,100,63,33,30.25,30.10,10,1,10,0.00
2013-4-7,69.0,54.1,38.4,46.4,40.7,34.1,86,63,42,30.22,30.08,12,1,14,0.00
2013-4-8,74.0,58.7,41.4,52.7,47.1,39.1,93,68,44,30.16,30.03,15,1,15,0.00
2013-4-9,81.0,65.7,46.7,57.2,52.6,44.5,94,65,39,30.17,30.05,11,1,11,0.00
2013-4-10,85.5,68.0,49.6,60.7,53.7,47.2,93,64,30,30.08,29.91,9,1,9,0.00
2013-4-11,75.9,65.4,55.4,62.0,55.6,51.1,90,72,44,29.93,29.64,15,1,15,0.43
2013-4-12,70.3,61.8,52.2,61.9,50.2,37.0,95,69,35,29.85,29.57,18,2,18,1.61
2013-4-13,69.0,57.1,47.1,39.3,35.6,24.8,72,47,22,30.05,29.83,18,3,19,0.00
2013-4-14,68.8,54.7,37.9,49.0,40.6,34.6,89,63,33,30.11,29.97,11,1,11,0.00
2013-4-15,62.9,55.0,50.8,56.3,51.8,47.5,95,89,77,30.22,29.97,7,0,10,0.08
2013-4-16,77.2,63.4,51.7,61.6,55.8,50.1,96,78,55,30.28,30.15,10,0,10,0.00
2013-4-17,71.2,62.7,54.6,62.3,58.2,52.5,96,86,71,30.24,30.10,7,0,7,0.52
2013-4-18,73.3,64.4,56.1,60.7,57.5,54.2,95,80,57,30.11,29.92,11,0,11,0.00
2013-4-19,66.3,60.4,43.6,61.3,55.3,34.1,92,84,69,29.92,29.66,20,2,20,0.66
2013-4-20,59.9,46.9,36.1,35.2,30.1,23.2,79,54,30,30.31,29.90,18,2,18,0.00
2013-4-21,59.7,46.5,31.2,38.2,32.8,27.5,92,62,36,30.47,30.31,16,1,16,0.00
2013-4-22,62.2,49.8,41.5,42.1,37.2,31.8,82,63,41,30.43,30.22,9,1,9,0.00
2013-4-23,70.8,53.3,34.0,47.3,39.4,29.9,89,62,38,30.29,30.09,11,0,11,0.00
2013-4-24,69.3,56.4,41.9,57.6,49.4,40.0,96,79,56,30.14,29.98,15,1,15,0.01
2013-4-25,68.5,53.0,40.5,48.4,32.4,8.0,85,54,10,30.32,30.08,13,2,13,0.00
2013-4-26,67.6,51.9,32.2,44.8,34.9,26.8,89,56,32,30.43,30.29,11,0,11,0.00
2013-4-27,57.4,52.3,49.4,50.6,47.6,44.2,95,84,64,30.38,30.25,4,0,4,0.61
2013-4-28,51.2,49.3,47.0,49.8,47.8,44.7,96,95,90,30.25,30.03,7,0,7,1.60
2013-4-29,72.0,59.2,49.8,59.8,53.4,47.8,100,83,44,30.09,29.93,10,0,10,0.07
2013-4-30,72.9,61.4,51.1,58.7,54.9,49.4,96,81,52,30.15,29.97,4,0,11,0.00
2013-5-1,62.2,57.4,53.8,53.9,52.3,50.2,89,83,71,30.26,30.15,10,1,10,0.00
2013-5-2,56.6,53.4,51.3,53.9,51.5,49.6,95,93,89,30.29,30.22,11,1,11,0.20
2013-5-3,55.2,52.4,48.4,51.3,49.6,47.0,96,90,80,30.24,30.09,11,1,11,0.28
2013-5-4,53.2,47.1,44.2,48.8,44.2,39.8,98,90,80,30.10,29.99,15,2,15,0.58
2013-5-5,50.3,46.1,43.1,49.2,44.8,41.7,96,95,95,30.05,29.85,15,2,15,4.90
2013-5-6,64.7,55.1,45.2,52.7,48.6,42.9,96,81,50,29.90,29.81,15,0,15,0.31
2013-5-7,62.2,49.4,41.5,51.2,45.6,39.9,96,88,55,29.97,29.88,9,0,9,0.37
2013-5-8,65.5,56.2,48.5,55.7,51.9,47.2,96,86,66,30.04,29.94,14,0,14,0.02
2013-5-9,77.3,58.5,46.8,59.3,51.2,45.4,96,80,43,30.13,30.02,9,0,9,0.00
2013-5-10,76.8,70.8,64.1,59.3,57.4,55.3,79,63,48,30.04,29.92,14,1,14,0.00
2013-5-11,75.5,64.2,55.0,60.7,57.0,51.8,94,78,55,29.96,29.78,13,0,13,0.00
2013-5-12,62.1,55.1,46.6,51.8,41.2,31.1,84,61,38,30.07,29.85,17,2,17,0.00
2013-5-13,60.8,50.2,39.2,37.1,32.9,29.4,82,53,32,30.21,30.07,16,1,16,0.00
2013-5-14,74.0,54.5,33.4,50.6,41.0,31.2,94,65,35,30.28,30.09,11,0,11,0.00
2013-5-15,86.5,69.1,49.6,59.4,52.7,46.8,91,60,30,30.11,29.94,14,1,15,0.00
2013-5-16,79.2,67.2,57.3,57.0,54.2,51.2,86,65,43,30.02,29.93,12,0,12,0.00
2013-5-17,79.4,64.9,50.8,62.0,56.2,49.1,96,76,51,30.10,30.00,9,0,9,0.00
2013-5-18,63.9,61.8,59.0,62.3,59.8,55.5,96,93,82,30.09,30.03,4,0,4,0.99
2013-5-19,73.6,65.3,60.8,65.7,62.1,59.4,97,90,74,30.10,29.98,7,0,7,0.16
2013-5-20,81.5,68.0,59.0,69.8,63.1,57.6,96,85,61,30.09,29.98,8,0,8,0.01
2013-5-21,82.8,68.7,58.7,70.2,63.3,56.9,96,84,54,30.04,29.90,10,0,10,0.04
2013-5-22,78.8,65.3,58.1,67.8,61.7,55.6,96,89,64,29.98,29.84,11,0,11,0.73
2013-5-23,79.0,66.6,57.9,63.7,57.8,51.7,96,76,47,29.94,29.82,16,1,16,0.05
2013-5-24,67.2,59.5,49.2,52.2,45.6,37.0,86,62,38,30.21,29.86,16,1,16,0.00
2013-5-25,75.3,57.2,39.1,48.6,41.1,35.6,89,58,29,30.32,30.20,9,0,9,0.00
2013-5-26,73.5,60.3,51.7,52.9,48.5,44.3,88,67,40,30.27,30.15,12,0,12,0.00
2013-5-27,76.7,63.1,47.2,61.8,54.2,45.3,95,75,54,30.27,30.13,10,0,10,0.00
2013-5-28,80.7,67.5,54.5,64.5,58.2,52.5,95,74,43,30.19,30.10,12,0,12,0.00
2013-5-29,82.7,69.2,57.0,67.2,60.5,53.5,94,75,49,30.20,30.11,11,0,11,0.00
2013-5-30,80.5,67.9,56.2,66.7,60.3,54.2,95,78,57,30.25,30.14,10,0,10,0.00
2013-5-31,80.6,69.3,60.2,63.3,60.3,57.6,93,75,49,30.19,30.08,6,0,10,0.00
2013-6-1,81.1,71.4,62.3,64.6,61.8,59.1,90,73,52,30.11,29.99,14,0,14,0.00
2013-6-2,71.7,66.0,62.5,67.3,63.5,60.8,95,92,79,30.03,29.88,8,0,8,0.37
2013-6-3,80.7,68.9,61.7,65.8,61.1,57.9,96,78,49,29.95,29.84,12,0,12,0.00
2013-6-4,77.1,67.5,57.1,65.4,61.2,55.1,94,81,63,30.07,29.93,8,0,8,0.00
2013-6-5,76.3,67.6,62.0,67.9,62.9,59.2,94,85,73,30.07,29.94,9,0,9,0.19
2013-6-6,76.7,68.8,63.4,68.5,64.7,61.8,95,87,71,29.96,29.74,5,0,5,0.04
2013-6-7,80.0,68.1,61.8,69.1,63.7,59.7,95,87,62,29.81,29.65,10,0,11,0.66
2013-6-8,81.7,69.0,60.2,68.1,62.6,58.5,95,82,50,30.07,29.81,8,0,8,0.12
2013-6-9,76.8,67.3,60.6,68.8,63.9,58.6,94,89,69,30.12,30.01,8,0,8,0.81
2013-6-10,76.0,68.1,60.8,66.7,63.3,58.5,94,85,65,30.03,29.86,11,0,11,0.82
2013-6-11,82.0,70.3,60.8,65.7,61.7,58.5,94,76,52,30.00,29.91,16,1,16,0.08
2013-6-12,89.3,74.5,61.0,74.7,66.5,58.7,93,78,51,30.01,29.90,10,0,10,0.00
2013-6-13,87.3,72.0,64.2,69.7,64.6,61.2,93,79,49,29.90,29.66,15,1,15,0.13
2013-6-14,77.2,67.1,55.6,62.2,56.2,52.6,92,70,45,30.04,29.78,10,1,10,0.01
2013-6-15,81.5,65.7,49.0,64.0,55.8,46.8,94,73,45,30.15,30.04,10,0,10,0.00
2013-6-16,84.3,69.8,56.5,67.3,61.7,54.5,94,77,50,30.12,29.99,9,0,9,0.01
2013-6-17,79.1,70.6,64.1,70.5,66.2,62.1,94,86,68,30.02,29.91,6,0,6,0.12
2013-6-18,77.2,68.9,62.1,69.6,65.0,59.4,94,88,73,29.92,29.76,19,0,19,0.18
2013-6-19,77.5,67.0,58.6,67.1,61.4,56.6,93,83,65,30.11,29.91,7,0,7,0.13
2013-6-20,77.8,67.7,60.1,67.8,63.0,57.8,94,85,67,30.21,30.10,9,0,9,0.01
2013-6-21,81.3,69.6,61.4,65.5,62.1,59.1,94,79,54,30.25,30.15,7,0,7,0.00
2013-6-22,82.8,69.7,58.0,67.4,60.9,55.4,92,75,54,30.23,30.09,6,0,6,0.00
2013-6-23,78.8,68.1,57.9,69.1,63.1,55.7,93,84,67,30.20,30.11,6,0,6,0.79
2013-6-24,84.6,70.9,60.9,71.5,65.3,58.8,94,83,57,30.20,30.05,11,0,11,0.77
2013-6-25,84.0,71.7,65.0,72.2,66.5,62.9,94,84,60,30.12,29.99,9,0,9,0.05
2013-6-26,83.2,72.4,63.2,73.0,66.5,60.7,93,83,63,30.03,29.89,9,0,9,0.00
2013-6-27,84.9,72.3,63.6,73.4,66.3,60.9,92,82,63,29.94,29.73,15,0,15,0.02
2013-6-28,86.8,74.4,64.1,70.6,66.5,61.0,91,78,54,29.79,29.58,15,0,15,0.01
2013-6-29,82.8,70.1,59.6,65.3,61.0,57.3,93,75,47,29.70,29.61,9,0,9,0.00
2013-6-30,82.2,67.7,57.5,69.4,61.3,54.9,92,82,46,29.81,29.69,6,0,8,0.00
2013-7-1,79.8,69.6,63.4,70.4,64.8,61.0,93,85,70,29.94,29.79,9,0,9,0.77
2013-7-2,79.5,69.8,63.8,71.5,65.3,61.2,93,86,71,30.11,29.92,8,0,8,0.04
2013-7-3,73.0,67.2,61.3,68.8,64.1,58.9,92,90,86,30.20,30.08,13,0,13,1.97
2013-7-4,73.9,66.0,61.5,69.8,63.2,59.2,93,91,86,30.23,30.14,4,0,4,1.80
2013-7-5,81.8,69.9,65.5,71.3,64.9,62.2,90,84,67,30.23,30.15,11,0,11,0.11
2013-7-6,79.8,70.2,65.6,71.3,65.3,61.5,88,85,73,30.19,30.09,8,0,8,1.06
2013-7-7,80.1,71.2,67.5,71.4,65.6,62.4,87,83,71,30.16,30.05,7,0,7,0.42
2013-7-8,88.0,73.3,65.9,72.4,65.9,61.3,86,78,49,30.17,30.06,6,0,6,0.09
2013-7-9,85.5,73.2,65.4,74.3,66.2,60.1,84,79,66,30.15,30.02,8,0,8,0.05
2013-7-10,81.4,69.0,64.1,73.2,63.3,58.8,84,82,75,30.12,29.94,9,0,9,1.54
2013-7-11,77.7,69.8,65.3,71.1,64.2,59.8,84,82,76,29.96,29.85,4,0,5,0.03
2013-7-12,80.2,68.6,61.8,70.7,61.9,55.6,83,79,70,30.01,29.87,10,0,10,0.53
2013-7-13,73.8,66.8,61.8,67.2,60.4,55.1,82,80,76,30.11,30.00,9,0,9,0.00
2013-7-14,73.5,68.5,66.8,66.2,59.6,56.5,80,73,69,30.28,30.08,10,0,10,1.81
2013-7-15,82.1,72.1,66.6,72.1,62.8,56.5,82,73,64,30.32,30.24,6,0,7,0.09
2013-7-16,89.3,74.3,62.0,72.6,63.1,51.7,82,69,49,30.33,30.21,6,0,6,0.00
2013-7-17,86.2,70.9,63.2,74.7,60.2,52.5,81,69,60,30.28,30.15,8,0,8,0.42
2013-7-18,86.0,74.0,65.6,75.1,63.4,53.3,81,70,63,30.21,30.04,8,0,8,0.00
2013-7-19,89.6,73.8,64.9,74.9,62.0,52.1,81,67,48,30.11,29.95,9,0,9,0.24
2013-7-20,84.6,71.4,66.1,73.7,60.8,53.6,80,69,63,30.03,29.92,11,0,11,0.01
2013-7-21,83.1,70.9,64.6,74.0,59.8,51.3,81,68,61,30.00,29.91,7,0,7,0.04
2013-7-22,85.9,72.7,64.9,73.1,61.1,50.8,81,67,59,30.00,29.79,14,0,14,0.19
2013-7-23,85.0,73.0,65.0,71.7,63.1,51.2,81,71,56,29.88,29.76,13,0,13,0.02
2013-7-24,85.4,74.5,65.7,72.3,64.4,53.3,81,71,54,29.83,29.75,9,0,9,0.00
2013-7-25,84.1,70.4,63.6,72.4,60.6,51.7,81,71,64,30.03,29.83,7,0,7,0.00
2013-7-26,79.8,68.6,58.4,69.8,58.2,46.6,81,70,59,30.08,29.99,5,0,5,0.05
2013-7-27,79.5,69.4,65.0,70.5,56.5,50.0,80,64,56,30.03,29.86,13,0,13,2.12
2013-7-28,83.7,70.9,62.6,70.1,57.7,48.6,81,63,53,30.01,29.90,8,0,8,0.32
2013-7-29,85.5,68.1,57.6,63.6,52.6,42.9,82,59,26,30.19,30.01,6,0,7,0.00
2013-7-30,77.6,67.4,57.0,68.4,58.4,45.0,82,73,59,30.22,30.13,7,0,7,0.00
2013-7-31,72.7,67.1,63.0,65.7,52.7,46.7,79,60,51,30.18,29.96,2,0,5,0.55
2013-8-1,84.8,72.2,64.7,71.9,58.4,46.7,80,63,49,29.99,29.87,10,0,10,0.01
2013-8-2,85.0,70.7,60.9,72.0,57.2,43.7,80,63,51,30.03,29.93,1,0,6,0.00
2013-8-3,83.3,71.7,64.7,69.9,56.8,45.2,80,60,48,30.03,29.94,9,0,9,0.00
2013-8-4,82.0,71.4,62.5,67.3,57.9,44.5,80,63,48,30.04,29.96,13,0,13,0.00
2013-8-5,78.9,68.2,58.6,69.6,56.1,41.7,80,65,49,30.07,29.95,7,0,7,0.22
2013-8-6,80.7,70.6,64.0,72.4,57.1,44.0,79,63,45,30.03,29.95,2,0,7,0.01
2013-8-7,72.0,69.1,67.5,56.3,47.9,42.6,61,47,39,30.05,29.99,5,0,5,0.41
2013-8-8,80.9,71.9,65.0,72.5,55.3,40.7,78,58,38,30.06,29.98,5,0,5,0.00
2013-8-9,85.4,73.4,66.1,73.6,56.6,39.5,79,57,36,30.07,29.99,8,0,8,0.06
2013-8-10,83.8,72.4,67.2,73.1,53.1,40.2,78,53,35,30.12,30.04,10,0,10,0.07
2013-8-11,87.2,72.6,65.6,73.0,53.7,38.7,78,53,33,30.15,30.03,8,0,8,0.00
2013-8-12,86.5,73.0,67.0,73.7,53.7,35.9,77,53,31,30.09,29.95,9,0,9,0.01
2013-8-13,83.0,72.2,67.1,72.2,52.6,33.0,78,54,27,29.98,29.80,11,0,11,0.05
2013-8-14,80.2,68.2,62.0,65.9,52.9,34.2,79,60,33,30.05,29.87,9,0,9,0.00
2013-8-15,69.5,62.6,58.2,60.2,55.3,51.3,80,77,68,30.14,30.04,9,0,9,0.00
2013-8-16,73.5,63.2,54.6,61.6,52.0,34.2,80,67,45,30.16,30.07,7,0,8,0.00
2013-8-17,65.0,61.6,57.6,58.4,50.0,35.6,80,67,39,30.18,30.11,7,0,7,0.14
2013-8-18,77.3,65.9,60.4,69.4,44.2,33.4,78,47,30,30.22,30.12,7,0,7,0.28
2013-8-19,73.7,67.0,63.1,66.1,42.4,30.5,78,43,27,30.19,30.07,3,0,3,0.90
2013-8-20,80.5,68.7,61.4,71.1,45.9,28.5,77,47,25,30.20,30.09,2,0,2,0.00
2013-8-21,75.8,68.6,63.1,68.1,43.7,23.6,77,45,19,30.24,30.10,0,0,0,0.02
2013-8-22,86.0,71.6,62.2,71.2,46.9,23.0,78,46,18,30.18,30.01,0,0,0,0.00
2013-8-23,82.2,69.3,61.9,71.4,43.3,20.4,77,44,16,30.09,29.97,9,0,9,0.02
2013-8-24,78.2,67.6,58.6,64.0,46.2,17.2,78,50,16,30.29,30.09,10,0,10,0.00
2013-8-25,77.5,63.8,51.8,62.9,47.4,20.5,78,57,25,30.39,30.28,6,0,6,0.00
2013-8-26,79.5,65.3,52.6,67.5,46.5,20.2,78,53,23,30.34,30.12,6,0,6,0.00
2013-8-27,83.5,68.6,57.7,70.5,44.0,16.3,77,46,17,30.18,30.01,8,0,8,0.00
2013-8-28,84.8,72.9,62.6,73.6,48.5,4.4,77,50,8,30.07,29.93,11,0,11,0.00
2013-8-29,85.5,77.1,69.6,74.0,68.0,42.3,78,74,40,29.96,29.86,15,0,15,0.00
2013-8-30,82.0,73.0,68.7,72.6,50.9,26.1,76,49,20,30.02,29.90,8,0,8,0.00
2013-8-31,84.9,72.5,65.9,73.2,39.6,1.9,76,40,7,29.96,29.85,3,0,7,0.00
2013-9-1,86.3,72.3,65.9,73.2,35.8,-10.2,77,38,5,29.91,29.77,10,0,10,0.04
2013-9-2,84.8,72.8,65.2,72.3,37.1,-6.9,77,40,5,29.91,29.79,11,0,11,0.00
2013-9-3,83.3,70.5,62.3,69.8,36.3,-16.8,77,38,3,30.00,29.82,11,0,11,0.13
2013-9-4,86.5,68.4,59.0,69.0,34.8,-2.6,77,36,7,30.13,30.00,4,0,6,0.00
2013-9-5,83.2,67.9,58.5,69.8,35.2,-12.8,77,40,4,30.15,30.06,5,0,5,0.00
2013-9-6,80.5,64.3,50.5,67.0,42.2,6.1,77,48,14,30.21,30.08,8,0,8,0.00
2013-9-7,82.3,67.0,55.5,66.7,37.2,-6.6,77,40,6,30.15,29.99,9,0,9,0.00
2013-9-8,80.4,67.8,59.0,68.6,33.7,-38.4,76,40,1,30.04,29.94,6,0,6,0.00
2013-9-9,83.4,70.3,60.2,71.0,35.1,-38.8,76,40,1,30.15,30.04,10,0,10,0.00
2013-9-10,85.8,70.3,58.8,70.7,36.4,-37.8,77,38,2,30.25,30.13,6,0,6,0.00
2013-9-11,79.0,69.2,60.1,70.4,26.5,-38.6,76,33,1,30.25,30.08,4,0,4,0.01
2013-9-12,82.5,71.0,64.4,70.5,33.0,-36.9,77,37,1,30.12,29.85,13,0,13,0.12
2013-9-13,76.7,66.4,56.5,61.6,43.4,1.1,79,50,8,29.90,29.81,11,0,11,0.04
2013-9-14,73.3,58.2,47.0,58.8,40.1,11.4,79,53,21,30.15,29.90,8,0,8,0.00
2013-9-15,75.0,61.2,51.1,63.5,38.1,6.2,78,48,13,30.23,30.12,6,0,6,0.00
2013-9-16,80.8,64.9,53.2,64.2,37.7,-1.5,79,43,8,30.18,30.08,9,0,9,0.00
2013-9-17,67.1,62.3,58.4,57.8,54.5,51.8,80,76,66,30.28,30.16,5,0,10,0.00
2013-9-18,65.6,60.2,55.1,58.2,48.3,21.5,80,68,22,30.29,30.17,7,0,7,0.00
2013-9-19,77.4,64.4,58.6,67.2,35.5,5.1,77,40,11,30.20,30.08,6,0,6,0.00
2013-9-20,82.2,68.4,60.1,68.8,34.2,-12.6,78,39,4,30.10,29.91,9,0,13,0.00
2013-9-21,66.3,62.4,57.0,46.6,7.5,-10.5,49,13,5,29.93,29.72,9,0,9,1.18
2013-9-22,72.6,60.7,52.8,59.9,30.6,-1.1,78,41,9,29.93,29.75,9,0,9,0.01
2013-9-23,71.3,60.2,52.1,61.3,34.2,1.9,78,45,11,30.07,29.93,8,0,8,0.00
2013-9-24,73.9,62.8,52.1,64.0,39.4,1.8,78,48,11,30.08,29.92,5,0,8,0.00
2013-9-25,61.1,59.0,57.6,20.5,1.2,-15.3,22,10,4,29.94,29.87,3,0,3,0.83
2013-9-26,67.2,59.4,52.5,59.7,26.3,-6.3,78,39,7,30.07,29.90,1,0,6,0.00
2013-9-27,73.4,58.8,46.8,62.4,36.8,5.2,78,50,12,30.19,30.07,3,0,6,0.01
2013-9-28,64.4,60.0,54.7,57.0,51.3,33.3,78,73,44,30.24,30.15,6,0,6,0.00
2013-9-29,69.3,59.5,53.2,58.7,50.7,38.4,79,73,56,30.18,30.03,6,0,6,0.01
2013-9-30,70.0,59.7,51.0,59.5,41.2,8.9,79,54,15,30.11,30.01,3,0,7,0.00
2013-10-1,75.9,61.5,51.4,61.5,36.1,6.3,78,43,12,30.19,30.05,6,0,7,0.00
2013-10-2,76.8,61.6,52.7,64.0,32.7,3.5,78,39,10,30.21,30.08,4,0,4,0.00
2013-10-3,78.2,64.0,55.0,65.2,35.3,-1.5,78,42,8,30.17,30.06,4,0,7,0.00
2013-10-4,79.3,64.1,55.5,66.7,33.1,-1.8,78,38,8,30.19,30.08,7,0,7,0.00
2013-10-5,80.9,65.0,55.3,66.6,33.6,-4.4,78,38,6,30.18,30.03,7,0,7,0.00
2013-10-6,77.8,64.8,55.1,65.6,36.9,-12.8,78,44,4,30.08,29.88,9,0,9,0.00
2013-10-7,66.2,60.4,48.4,58.1,30.9,-14.7,79,46,4,30.03,29.80,12,1,12,1.44
2013-10-8,64.4,52.7,44.6,52.0,34.8,11.2,81,55,24,30.24,30.03,8,0,8,0.00
2013-10-9,67.0,53.1,43.1,53.3,38.0,16.4,80,57,34,30.26,30.14,6,0,6,0.00
2013-10-10,72.8,54.4,38.9,56.8,35.5,11.8,80,51,19,30.18,30.04,8,0,8,0.00
2013-10-11,74.4,57.7,45.3,57.5,34.8,9.9,79,45,15,30.07,29.95,11,0,11,0.00
2013-10-12,70.0,58.9,48.6,60.7,36.5,6.5,79,48,15,30.11,30.00,8,0,8,0.00
2013-10-13,68.1,61.3,56.5,61.0,24.8,-4.6,78,31,7,30.22,30.11,3,0,3,0.08
2013-10-14,63.8,60.0,54.9,55.0,19.6,-5.4,73,28,7,30.24,30.15,6,0,6,0.03
2013-10-15,62.2,57.3,54.1,55.3,31.2,7.8,78,42,15,30.20,30.07,6,0,6,0.01
2013-10-16,69.2,57.7,47.2,59.7,32.5,4.4,80,44,14,30.11,29.96,7,0,7,0.00
2013-10-17,68.4,61.2,56.1,60.8,23.9,-19.8,78,35,3,29.99,29.82,6,0,8,0.13
2013-10-18,67.6,55.7,45.4,56.9,40.7,15.4,80,59,29,30.03,29.91,8,0,8,0.00
2013-10-19,62.4,55.8,52.4,54.0,31.9,5.9,79,47,14,29.98,29.83,12,0,12,0.00
2013-10-20,63.0,49.2,37.1,47.5,37.2,16.3,81,64,39,30.14,29.94,8,0,8,0.00
2013-10-21,65.3,49.7,37.4,53.3,31.7,13.3,80,51,25,30.19,30.03,5,0,7,0.00
2013-10-22,66.5,55.2,47.6,51.7,33.0,9.6,81,47,18,30.06,29.81,9,0,9,0.00
2013-10-23,52.9,46.2,37.4,44.6,34.2,16.1,80,64,31,30.05,29.74,17,2,17,0.01
2013-10-24,50.2,41.9,34.7,36.9,32.6,27.1,81,70,56,30.20,30.05,14,1,14,0.00
2013-10-25,47.9,37.5,27.7,34.7,27.2,21.4,84,68,41,30.41,30.20,12,1,12,0.00
2013-10-26,56.1,38.9,22.6,38.3,25.2,12.3,82,60,29,30.40,30.10,10,0,10,0.00
2013-10-27,64.5,54.1,45.5,49.5,44.0,33.8,81,69,56,30.13,30.05,15,1,15,0.00
2013-10-28,59.7,51.3,44.4,52.7,29.6,14.3,80,46,22,30.29,30.12,2,0,2,0.04
2013-10-29,65.5,54.0,47.4,53.8,33.5,14.3,81,50,22,30.38,30.25,6,0,6,0.00
2013-10-30,72.5,58.0,48.9,57.3,39.3,14.8,80,52,23,30.31,30.16,8,0,8,0.00
2013-10-31,64.9,58.9,51.0,58.2,42.7,15.1,79,59,23,30.19,29.82,8,0,12,0.01
2013-11-1,75.0,64.2,53.6,59.2,50.8,37.6,81,64,28,29.84,29.60,18,1,18,0.02
2013-11-2,59.0,51.9,45.5,46.6,40.7,35.6,79,66,49,30.02,29.72,13,1,18,0.03
2013-11-3,56.4,46.0,36.5,37.5,35.8,32.0,84,69,47,30.39,30.01,11,1,11,0.00
2013-11-4,52.7,43.3,32.5,33.0,31.3,24.2,84,64,44,30.53,30.38,9,0,9,0.00
2013-11-5,54.1,44.0,35.0,41.2,32.0,20.6,82,65,29,30.56,30.45,9,0,9,0.00
2013-11-6,64.3,54.6,46.7,52.1,44.7,31.0,82,70,51,30.45,30.14,8,0,8,0.00
2013-11-7,57.1,49.1,40.5,50.9,33.3,19.5,81,57,26,30.16,30.01,18,2,18,0.02
2013-11-8,52.7,39.8,28.7,30.0,24.9,17.0,89,58,27,30.36,30.16,15,1,15,0.00
2013-11-9,55.2,39.9,25.8,33.7,27.8,21.0,84,65,33,30.42,30.27,8,0,8,0.00
2013-11-10,63.5,51.2,36.4,39.0,32.5,23.4,83,50,31,30.29,30.18,17,2,17,0.00
2013-11-11,60.9,43.2,27.3,31.4,27.8,23.1,84,58,32,30.35,30.20,8,0,8,0.00
2013-11-12,53.9,38.8,24.0,37.4,26.3,12.8,84,62,39,30.48,30.12,18,2,18,0.00
2013-11-13,42.6,29.2,21.1,20.7,16.7,11.2,84,61,39,30.60,30.47,14,2,14,0.00
2013-11-14,60.0,34.0,18.0,25.4,19.2,10.9,92,62,15,30.55,30.38,10,0,10,0.00
2013-11-15,56.0,40.6,24.7,49.1,28.1,20.2,83,64,37,30.40,30.25,9,0,9,0.16
2013-11-16,57.9,50.2,44.2,51.8,29.8,20.9,80,47,33,30.29,30.18,10,0,10,0.01
2013-11-17,60.4,56.0,52.7,54.0,32.0,16.8,80,43,20,30.23,29.88,10,0,10,0.35
2013-11-18,63.2,55.8,44.5,53.8,37.1,15.3,81,51,18,30.02,29.84,21,3,21,0.01
2013-11-19,53.0,44.0,37.5,31.7,26.2,22.3,66,50,33,30.28,30.00,10,2,13,0.00
2013-11-20,47.4,39.7,33.2,31.2,27.5,25.1,76,62,42,30.48,30.26,11,1,11,0.00
2013-11-21,51.2,44.9,38.0,44.0,31.8,21.1,82,62,34,30.51,30.40,3,0,7,0.04
2013-11-22,65.0,56.7,48.3,57.3,40.8,20.3,80,59,27,30.42,30.12,10,1,10,0.02
2013-11-23,56.9,46.5,31.1,50.5,37.5,18.8,81,71,47,30.23,30.08,24,3,24,0.00
2013-11-24,37.9,27.7,20.0,19.9,10.6,-4.4,75,50,17,30.54,30.22,14,2,16,0.00
2013-11-25,39.1,27.5,17.8,26.1,14.4,8.7,84,60,31,30.58,30.37,11,0,11,0.01
2013-11-26,43.2,38.3,30.5,26.2,22.1,19.9,83,53,43,30.38,29.69,10,0,10,2.21
2013-11-27,42.9,30.3,21.9,27.4,21.2,13.2,84,69,43,30.23,29.63,30,4,30,0.04
2013-11-28,47.7,28.8,17.8,25.6,19.2,13.8,85,69,37,30.53,30.22,13,1,13,0.02
2013-11-29,53.7,33.4,20.6,30.4,22.2,12.5,84,65,35,30.64,30.52,6,0,6,0.00
2013-11-30,44.5,33.2,25.9,27.0,23.8,21.7,84,69,49,30.64,30.42,7,0,10,0.00
2013-12-1,58.2,36.3,22.4,39.2,26.4,14.5,84,69,39,30.42,30.09,9,0,9,0.00
2013-12-2,55.7,40.6,27.0,41.4,30.7,16.4,83,68,56,30.09,29.84,5,0,5,0.00
2013-12-3,43.0,42.0,41.1,38.2,34.3,32.6,83,74,69,29.91,29.88,2,0,2,0.00
2013-12-4,42.1,42.1,42.1,32.7,32.7,32.7,69,69,69,29.89,29.89,0,0,0,0.00
2013-12-5,63.7,46.1,42.1,34.8,31.3,22.3,69,60,21,29.99,29.89,10,0,10,0.27
2013-12-6,70.4,65.4,53.8,62.5,51.8,25.7,80,64,24,30.00,29.88,17,3,20,0.23
2013-12-7,53.8,45.5,40.3,42.8,36.8,29.4,82,73,44,30.38,29.95,16,2,16,0.00
2013-12-8,40.6,34.4,31.7,35.5,22.3,18.6,82,61,57,30.39,30.25,13,1,13,0.17
2013-12-9,55.5,47.3,32.5,49.7,32.5,19.0,83,57,35,30.26,30.03,14,1,14,0.39
2013-12-10,47.8,39.7,29.4,42.4,27.1,18.6,82,62,41,30.33,29.89,12,2,21,0.18
2013-12-11,50.7,34.5,19.4,26.3,17.9,10.1,85,56,23,30.50,30.33,16,1,16,0.00
2013-12-12,38.2,31.3,24.8,20.6,14.5,3.4,72,52,24,30.43,30.33,16,2,16,0.00
2013-12-13,50.6,32.1,17.7,28.2,19.8,14.0,92,63,30,30.46,30.30,8,0,8,0.00
2013-12-14,39.5,37.3,35.1,31.0,25.6,22.3,83,63,52,30.32,29.82,8,0,8,0.46
2013-12-15,43.5,35.7,29.8,38.2,28.1,22.5,84,75,48,30.14,29.79,23,3,23,0.01
2013-12-16,53.8,38.4,26.7,32.3,27.3,21.7,85,67,40,30.23,30.14,14,1,14,0.00
2013-12-17,57.5,42.7,26.8,35.2,29.6,19.8,84,62,41,30.19,29.94,27,3,27,0.00
2013-12-18,46.2,35.0,25.9,22.8,13.8,2.0,70,45,18,30.36,30.08,17,2,17,0.00
2013-12-19,63.0,39.5,22.7,33.7,25.5,16.5,85,62,26,30.40,30.26,6,0,10,0.00
2013-12-20,63.8,47.3,34.1,48.0,33.1,23.4,83,60,33,30.27,30.13,10,0,10,0.00
2013-12-21,64.9,59.8,52.7,58.5,51.7,40.0,83,75,48,30.16,29.95,16,1,18,0.13
2013-12-22,64.8,58.7,55.1,58.5,40.5,30.8,81,52,39,30.03,29.91,19,1,22,2.14
2013-12-23,56.0,47.3,33.4,47.3,35.2,28.5,83,66,40,30.20,29.97,15,2,15,0.21
2013-12-24,33.4,28.7,19.3,28.6,21.8,15.7,86,75,58,30.47,30.19,10,3,16,0.00
2013-12-25,37.3,25.3,16.7,18.5,15.4,11.6,86,68,42,30.57,30.42,9,0,9,0.00
2013-12-26,47.9,30.1,18.5,28.2,19.8,13.6,86,69,34,30.44,30.33,15,1,15,0.00
2013-12-27,51.2,30.8,20.5,29.1,20.8,14.2,92,69,29,30.53,30.42,9,0,9,0.00
2013-12-28,47.9,34.6,20.9,37.8,24.7,14.9,89,68,49,30.50,30.17,6,0,6,0.28
2013-12-29,52.4,43.1,37.7,44.0,32.9,23.5,83,67,51,30.17,29.82,18,2,18,0.43
2013-12-30,46.3,41.0,34.6,37.8,34.8,29.9,84,78,70,30.16,29.99,15,2,15,0.00
2013-12-31,40.3,33.6,24.6,29.9,20.9,16.5,85,61,39,30.42,30.14,15,2,19,0.00
2014-1-1,46.1,32.0,23.2,29.2,23.9,18.8,92,74,45,30.43,30.18,3,0,4,0.00
2014-1-2,46.6,33.0,18.7,40.6,26.5,12.2,84,77,55,30.19,29.70,30,2,30,0.16